Weather History for Plainview, TX

Change the Weather History Date:

Tuesday, January 14, 2014

  Actual Average Record
Temperature  
Mean Temperature 38 °F -  
Max Temperature 54 °F 50 °F 75 °F (1952)
Min Temperature 23 °F 24 °F -6 °F (1963)
Degree Days  
Heating Degree Days 26    
Moisture  
Dew Point 18 °F    
Average Humidity 42    
Maximum Humidity 68    
Minimum Humidity 29    
Precipitation  
Precipitation 0.00 in - - ()
Sea Level Pressure  
Sea Level Pressure 30.19 in    
Wind  
Wind Speed 11 mph (North)    
Max Wind Speed 24 mph    
Max Gust Speed 33 mph    
Visibility 10 miles    
Events      
Averages and records for this station are not official NWS values.
T = Trace of Precipitation, MM = Missing Value Source: NWS Daily Summary

Daily Weather History Graph

Daily Weather History Graph

Search for Another Location

Airport:

Trip Planner

Search our weather history database for the weather conditions in past years. The results will help you decide how hot, cold, wet, or windy it might be!

Date:

Astronomy

Jan. 14, 2014 Rise Set
Actual Time 7:52 AM CST 5:59 PM CST
Civil Twilight 7:25 AM CST 6:26 PM CST
Nautical Twilight 6:54 AM CST 6:57 PM CST
Astronomical Twilight 6:24 AM CST 7:27 PM CST
Moon 5:05 PM CST (1/14) 6:29 AM CST (1/14)
Length of Visible Light 11h 01m
Length of Day
10h 06m
Waxing Gibbous, 98% of the Moon is Illuminated
Jan 14
Waxing Gibbous
Jan 15
Full
Jan 23
Last Quarter
Jan 30
New
Feb 6
First Quarter

Hourly Weather History & Observations

Time (CST) Temp. Windchill Dew Point Humidity Pressure Visibility Wind Dir Wind Speed Gust Speed Precip Events Conditions
12:15 AM 30.0 °F 25.2 °F 6.4 °F 37% 30.01 in 10.0 mi WSW 4.6 mph - N/A   Clear
12:35 AM 26.4 °F 20.9 °F 6.4 °F 43% 30.00 in 10.0 mi West 4.6 mph - N/A   Clear
12:55 AM 30.0 °F 25.2 °F 10.0 °F 43% 29.99 in 10.0 mi West 4.6 mph - N/A   Clear
1:15 AM 30.0 °F 21.1 °F 10.6 °F 44% 29.99 in 10.0 mi West 10.4 mph - N/A   Clear
1:35 AM 30.0 °F 20.5 °F 10.9 °F 45% 29.99 in 10.0 mi West 11.5 mph - N/A   Clear
1:55 AM 34.7 °F 26.4 °F 13.1 °F 41% 29.99 in 10.0 mi WNW 11.5 mph - N/A   Clear
2:15 AM 31.3 °F 23.9 °F 11.8 °F 45% 29.99 in 10.0 mi West 8.1 mph - N/A   Clear
2:35 AM 27.5 °F 20.2 °F 11.1 °F 50% 29.99 in 10.0 mi WSW 6.9 mph - N/A   Clear
2:55 AM 25.5 °F 16.9 °F 10.8 °F 54% 29.99 in 10.0 mi SW 8.1 mph - N/A   Clear
3:15 AM 30.0 °F 22.4 °F 12.6 °F 48% 29.98 in 10.0 mi West 8.1 mph - N/A   Clear
3:35 AM 24.6 °F 16.7 °F 10.4 °F 55% 29.98 in 10.0 mi West 6.9 mph - N/A   Clear
3:55 AM 23.0 °F 18.4 °F 10.0 °F 58% 29.98 in 10.0 mi West 3.5 mph - N/A   Clear
4:15 AM 24.3 °F 19.9 °F 10.9 °F 57% 29.97 in 10.0 mi WNW 3.5 mph - N/A   Clear
4:35 AM 32.5 °F 24.2 °F 16.5 °F 52% 29.97 in 10.0 mi WNW 10.4 mph - N/A   Clear
4:55 AM 34.7 °F 26.4 °F 16.5 °F 48% 29.97 in 10.0 mi WNW 11.5 mph - N/A   Clear
5:15 AM 34.7 °F 25.9 °F 16.2 °F 47% 29.98 in 10.0 mi WNW 12.7 mph - N/A   Clear
5:35 AM 34.7 °F 25.5 °F 14.0 °F 43% 29.98 in 10.0 mi NW 13.8 mph - N/A   Clear
5:55 AM 34.7 °F 25.9 °F 14.0 °F 43% 29.99 in 10.0 mi NW 12.7 mph - N/A   Clear
6:15 AM 34.7 °F 25.5 °F 14.0 °F 43% 30.01 in 10.0 mi NNW 13.8 mph - N/A   Clear
6:35 AM 37.4 °F 28.2 °F 12.9 °F 37% 30.02 in 10.0 mi NNW 16.1 mph - N/A   Clear
6:55 AM 39.7 °F 30.0 °F 13.6 °F 35% 30.04 in 10.0 mi North 20.7 mph 24.2 mph N/A   Clear
7:15 AM 39.7 °F 30.0 °F 13.5 °F 34% 30.05 in 10.0 mi North 20.7 mph 26.5 mph N/A   Clear
7:35 AM 39.7 °F 31.5 °F 14.7 °F 36% 30.06 in 10.0 mi North 15.0 mph 20.7 mph N/A   Clear
7:55 AM 38.7 °F 31.4 °F 15.4 °F 39% 30.10 in 10.0 mi North 11.5 mph - N/A   Clear
8:15 AM 37.4 °F 30.8 °F 15.8 °F 41% 30.11 in 10.0 mi North 9.2 mph - N/A   Clear
8:35 AM 37.4 °F 30.8 °F 16.5 °F 43% 30.13 in 10.0 mi North 9.2 mph - N/A   Clear
8:55 AM 37.4 °F 30.3 °F 16.5 °F 43% 30.13 in 7.0 mi North 10.4 mph - N/A   Clear
9:15 AM 39.7 °F 33.2 °F 17.6 °F 41% 30.15 in 10.0 mi North 10.4 mph - N/A   Clear
9:35 AM 41.7 °F 34.4 °F 18.1 °F 39% 30.16 in 10.0 mi North 13.8 mph - N/A   Clear
9:55 AM 43.0 °F 36.4 °F 18.7 °F 38% 30.18 in 10.0 mi North 12.7 mph - N/A   Clear
10:15 AM 45.0 °F 38.2 °F 19.8 °F 37% 30.20 in 10.0 mi North 15.0 mph - N/A   Clear
10:35 AM 50.0 °F - 22.5 °F 34% 30.20 in 10.0 mi North 16.1 mph 20.7 mph N/A   Clear
10:55 AM 50.0 °F - 21.6 °F 33% 30.21 in 10.0 mi NNE 13.8 mph 18.4 mph N/A   Clear
11:15 AM 50.9 °F - 21.6 °F 32% 30.20 in 10.0 mi NNE 16.1 mph 26.5 mph N/A   Clear
11:35 AM 52.7 °F - 21.7 °F 30% 30.20 in 10.0 mi NNE 24.2 mph 28.8 mph N/A   Clear
11:55 AM 54.9 °F - 23.0 °F 29% 30.21 in 10.0 mi North 21.9 mph 28.8 mph N/A   Clear
12:15 PM 54.9 °F - 22.6 °F 29% 30.21 in 10.0 mi NNE 18.4 mph 26.5 mph N/A   Clear
12:35 PM 54.9 °F - 23.4 °F 30% 30.21 in 10.0 mi NNE 17.3 mph 29.9 mph N/A   Clear
12:55 PM 54.9 °F - 22.6 °F 29% 30.20 in 10.0 mi NNE 19.6 mph 25.3 mph N/A   Clear
1:15 PM 54.9 °F - 24.3 °F 31% 30.20 in 10.0 mi NNE 19.6 mph 33.4 mph N/A   Clear
1:35 PM 54.9 °F - 25.5 °F 32% 30.20 in 10.0 mi North 20.7 mph 31.1 mph N/A   Clear
1:55 PM 53.6 °F - 24.3 °F 32% 30.21 in 10.0 mi North 23.0 mph 29.9 mph N/A   Clear
2:15 PM 52.3 °F - 24.8 °F 34% 30.22 in 10.0 mi NNE 20.7 mph 28.8 mph N/A   Clear
2:35 PM 51.8 °F - 25.0 °F 35% 30.22 in 10.0 mi North 20.7 mph 26.5 mph N/A   Clear
2:55 PM 51.8 °F - 23.7 °F 33% 30.24 in 10.0 mi North 19.6 mph 26.5 mph N/A   Clear
3:15 PM 51.1 °F - 21.6 °F 31% 30.24 in 10.0 mi NNE 18.4 mph 26.5 mph N/A   Clear
3:35 PM 50.0 °F - 19.9 °F 31% 30.26 in 10.0 mi North 19.6 mph 25.3 mph N/A   Clear
3:55 PM 50.0 °F - 20.1 °F 31% 30.28 in 10.0 mi NNE 16.1 mph 20.7 mph N/A   Clear
4:15 PM 50.0 °F - 20.8 °F 32% 30.29 in 10.0 mi NNE 15.0 mph 21.9 mph N/A   Clear
4:35 PM 50.0 °F - 22.5 °F 34% 30.30 in 10.0 mi North 20.7 mph 26.5 mph N/A   Clear
4:55 PM 50.0 °F - 23.9 °F 36% 30.31 in 10.0 mi NNE 15.0 mph 23.0 mph N/A   Clear
5:15 PM 47.3 °F - 22.1 °F 37% 30.32 in 10.0 mi NNE 13.8 mph - N/A   Clear
5:35 PM 46.4 °F 40.4 °F 21.6 °F 37% 30.33 in 10.0 mi NNE 13.8 mph 19.6 mph N/A   Clear
5:55 PM 43.7 °F 36.9 °F 19.9 °F 39% 30.34 in 10.0 mi NE 13.8 mph 18.4 mph N/A   Clear
6:15 PM 42.8 °F 36.6 °F 20.3 °F 41% 30.35 in 10.0 mi NNE 11.5 mph - N/A   Clear
6:35 PM 42.3 °F 35.5 °F 22.5 °F 45% 30.36 in 10.0 mi NNE 12.7 mph 19.6 mph N/A   Clear
6:55 PM 41.0 °F 33.9 °F 19.4 °F 42% 30.37 in 10.0 mi NNE 12.7 mph - N/A   Clear
7:15 PM 39.7 °F 32.7 °F 18.1 °F 42% 30.38 in 10.0 mi NNE 11.5 mph 18.4 mph N/A   Clear
7:35 PM 39.7 °F 33.2 °F 17.4 °F 41% 30.41 in 10.0 mi NNE 10.4 mph - N/A   Scattered Clouds
7:55 PM 37.4 °F 30.3 °F 17.4 °F 44% 30.41 in 10.0 mi NNE 10.4 mph - N/A   Scattered Clouds
8:15 PM 37.4 °F 30.8 °F 18.5 °F 46% 30.42 in 10.0 mi NNE 9.2 mph - N/A   Scattered Clouds
8:35 PM 37.4 °F 30.8 °F 18.5 °F 46% 30.41 in 10.0 mi NE 9.2 mph - N/A   Clear
8:55 PM 35.4 °F 29.7 °F 18.1 °F 49% 30.43 in 10.0 mi NNE 6.9 mph - N/A   Scattered Clouds
9:15 PM 34.7 °F 28.8 °F 18.1 °F 51% 30.42 in 10.0 mi NNE 6.9 mph - N/A   Clear
9:35 PM 34.7 °F 29.6 °F 18.7 °F 52% 30.43 in 10.0 mi NNE 5.8 mph - N/A   Clear
9:55 PM 32.0 °F 26.4 °F 18.3 °F 57% 30.43 in 10.0 mi North 5.8 mph - N/A   Clear
10:15 PM 32.2 °F 27.7 °F 18.1 °F 56% 30.42 in 10.0 mi North 4.6 mph - N/A   Clear
10:35 PM 32.2 °F 26.7 °F 18.3 °F 57% 30.42 in 10.0 mi NNW 5.8 mph - N/A   Clear
10:55 PM 30.0 °F 24.1 °F 17.6 °F 60% 30.42 in 10.0 mi North 5.8 mph - N/A   Clear
11:15 PM 25.7 °F 18.0 °F 15.8 °F 66% 30.42 in 10.0 mi WNW 6.9 mph - N/A   Clear
11:35 PM 24.8 °F 17.9 °F 15.4 °F 68% 30.41 in 10.0 mi WNW 5.8 mph - N/A   Clear
11:55 PM 25.2 °F 19.5 °F 15.6 °F 67% 30.38 in 10.0 mi NW 4.6 mph - N/A   Clear